| time (UTC) | temp C | wind direction | speed KPH | gust KPH | rain 1hr cm | rain 24hr cm | rain mn cm | humidity % | barometer mb |
| 20260509094506 | 12 | 84 | 14.5 | 20.9 | 0.00 | 0.00 | 0.00 | 64 | 1019.2 |
| 20260509093005 | 13 | 64 | 11.3 | 19.3 | 0.00 | 0.00 | 0.00 | 66 | 1019.2 |
| 20260509091502 | 12 | 101 | 12.9 | 24.1 | 0.00 | 0.00 | 0.00 | 68 | 1019.2 |
| 20260509090104 | 13 | 90 | 9.7 | 17.7 | 0.00 | 0.00 | 0.00 | 64 | 1019.2 |
| 20260509084608 | 12 | 98 | 12.9 | 20.9 | 0.00 | 0.00 | 0.00 | 69 | 1019.4 |
| 20260509083051 | 12 | 66 | 6.4 | 20.9 | 0.00 | 0.00 | 0.00 | 71 | 1019.4 |
| 20260509081553 | 11 | 109 | 12.9 | 20.9 | 0.00 | 0.00 | 0.00 | 72 | 1019.5 |
| 20260509080051 | 11 | 83 | 12.9 | 19.3 | 0.00 | 0.00 | 0.00 | 72 | 1019.5 |
| 20260509074545 | 11 | 92 | 11.3 | 19.3 | 0.00 | 0.00 | 0.00 | 74 | 1019.6 |
| 20260509073044 | 11 | 96 | 14.5 | 20.9 | 0.00 | 0.00 | 0.00 | 72 | 1019.5 |
| 20260509071534 | 11 | 63 | 17.7 | 24.1 | 0.00 | 0.00 | 0.00 | 72 | 1019.5 |
| 20260509070029 | 11 | 91 | 14.5 | 22.5 | 0.00 | 0.00 | 0.00 | 73 | 1019.6 |
| 20260509064524 | 11 | 99 | 11.3 | 20.9 | 0.00 | 0.00 | 0.00 | 74 | 1019.6 |
| 20260509063023 | 10 | 76 | 12.9 | 20.9 | 0.00 | 0.00 | 0.00 | 75 | 1019.6 |
| 20260509061517 | 10 | 72 | 14.5 | 24.1 | 0.00 | 0.00 | 0.00 | 76 | 1019.6 |
| 20260509060011 | 10 | 98 | 8.0 | 19.3 | 0.00 | 0.00 | 0.00 | 77 | 1019.7 |
| 20260509054509 | 10 | 74 | 6.4 | 16.1 | 0.00 | 0.00 | 0.00 | 79 | 1019.8 |
| 20260509053003 | 10 | 74 | 4.8 | 11.3 | 0.00 | 0.00 | 0.00 | 80 | 1019.7 |
| 20260509051608 | 9 | 34 | 1.6 | 6.4 | 0.00 | 0.00 | 0.00 | 84 | 1019.7 |
| 20260509050056 | 7 | 19 | 1.6 | 4.8 | 0.00 | 0.00 | 0.00 | 86 | 1019.7 |
| 20260509044552 | 6 | 50 | 1.6 | 4.8 | 0.00 | 0.00 | 0.00 | 88 | 1019.6 |
| 20260509043045 | 5 | 355 | 1.6 | 4.8 | 0.00 | 0.00 | 0.00 | 90 | 1019.6 |
| 20260509041543 | 4 | 355 | 0.0 | 1.6 | 0.00 | 0.00 | 0.00 | 90 | 1019.6 |
| 20260509040043 | 3 | 355 | 3.2 | 6.4 | 0.00 | 0.00 | 0.00 | 90 | 1019.5 |
| 20260509034539 | 3 | 355 | 1.6 | 4.8 | 0.00 | 0.00 | 0.00 | 90 | 1019.6 |
| 20260509033035 | 3 | 355 | 0.0 | 4.8 | 0.00 | 0.00 | 0.00 | 89 | 1019.5 |
| 20260509031533 | 3 | 355 | 0.0 | 3.2 | 0.00 | 0.00 | 0.00 | 89 | 1019.5 |
| 20260509030034 | 3 | 355 | 1.6 | 4.8 | 0.00 | 0.00 | 0.00 | 89 | 1019.5 |
| 20260509024530 | 3 | 5 | 1.6 | 4.8 | 0.00 | 0.00 | 0.00 | 89 | 1019.4 |
| 20260509023029 | 3 | 30 | 1.6 | 4.8 | 0.00 | 0.00 | 0.00 | 89 | 1019.4 |
| 20260509021526 | 3 | 53 | 0.0 | 3.2 | 0.00 | 0.00 | 0.00 | 88 | 1019.6 |
| 20260509020023 | 4 | 55 | 1.6 | 4.8 | 0.00 | 0.00 | 0.00 | 88 | 1019.8 |
| 20260509014534 | 4 | 55 | 1.6 | 6.4 | 0.00 | 0.00 | 0.00 | 88 | 1019.7 |
| 20260509013023 | 4 | 55 | 3.2 | 6.4 | 0.00 | 0.00 | 0.00 | 89 | 1019.7 |
| 20260509011519 | 4 | 46 | 4.8 | 8.0 | 0.00 | 0.00 | 0.00 | 90 | 1019.7 |
| 20260509010018 | 4 | 46 | 3.2 | 6.4 | 0.00 | 0.00 | 0.00 | 90 | 1019.7 |
| 20260509004515 | 4 | 30 | 3.2 | 6.4 | 0.00 | 0.00 | 0.00 | 89 | 1019.9 |
| 20260509003013 | 4 | 20 | 1.6 | 4.8 | 0.00 | 0.00 | 0.00 | 89 | 1020.0 |
| 20260509001513 | 5 | 13 | 3.2 | 6.4 | 0.00 | 0.00 | 0.00 | 88 | 1020.0 |
| 20260509000011 | 5 | 5 | 3.2 | 4.8 | 0.00 | 0.00 | 0.00 | 87 | 1020.1 |
| 20260508234509 | 5 | 5 | 1.6 | 6.4 | 0.00 | 0.00 | 0.00 | 87 | 1020.1 |
| 20260508233008 | 5 | 11 | 1.6 | 6.4 | 0.00 | 0.00 | 0.00 | 86 | 1020.1 |
| 20260508231505 | 5 | 23 | 3.2 | 6.4 | 0.00 | 0.00 | 0.00 | 84 | 1020.2 |
| 20260508230002 | 5 | 32 | 3.2 | 6.4 | 0.00 | 0.00 | 0.00 | 82 | 1020.2 |
| 20260508224605 | 6 | 67 | 3.2 | 4.8 | 0.00 | 0.00 | 0.00 | 81 | 1020.3 |
| 20260508223057 | 6 | 67 | 3.2 | 8.0 | 0.00 | 0.00 | 0.00 | 82 | 1020.3 |
| 20260508221555 | 6 | 67 | 4.8 | 8.0 | 0.00 | 0.00 | 0.00 | 84 | 1020.4 |
| 20260508220118 | 7 | 67 | 3.2 | 6.4 | 0.00 | 0.00 | 0.00 | 84 | 1020.4 |
| 20260508214556 | 7 | 65 | 4.8 | 8.0 | 0.00 | 0.00 | 0.00 | 84 | 1020.3 |
| 20260508213054 | 7 | 70 | 3.2 | 8.0 | 0.00 | 0.00 | 0.00 | 83 | 1020.4 |
| 20260508211552 | 7 | 78 | 4.8 | 8.0 | 0.00 | 0.00 | 0.00 | 83 | 1020.4 |
| 20260508210050 | 7 | 63 | 3.2 | 6.4 | 0.00 | 0.00 | 0.00 | 80 | 1020.3 |
| 20260508204600 | 7 | 72 | 3.2 | 8.0 | 0.00 | 0.00 | 0.00 | 79 | 1020.3 |
| 20260508203049 | 7 | 81 | 3.2 | 9.7 | 0.00 | 0.00 | 0.00 | 76 | 1020.2 |
| 20260508201548 | 7 | 69 | 4.8 | 14.5 | 0.00 | 0.00 | 0.00 | 75 | 1020.1 |
| 20260508200046 | 8 | 63 | 0.0 | 4.8 | 0.00 | 0.00 | 0.00 | 73 | 1020.1 |
| 20260508194544 | 8 | 63 | 3.2 | 9.7 | 0.00 | 0.00 | 0.00 | 72 | 1019.9 |
| 20260508193048 | 8 | 76 | 1.6 | 12.9 | 0.00 | 0.00 | 0.00 | 68 | 1019.7 |
| 20260508191544 | 8 | 65 | 6.4 | 17.7 | 0.00 | 0.00 | 0.00 | 69 | 1019.6 |
| 20260508190045 | 9 | 78 | 6.4 | 16.1 | 0.00 | 0.00 | 0.00 | 68 | 1019.5 |
| 20260508184546 | 9 | 69 | 3.2 | 12.9 | 0.00 | 0.00 | 0.00 | 66 | 1019.5 |
| 20260508183043 | 10 | 85 | 4.8 | 16.1 | 0.00 | 0.00 | 0.00 | 66 | 1019.3 |
| 20260508181557 | 10 | 86 | 6.4 | 19.3 | 0.00 | 0.00 | 0.00 | 65 | 1019.3 |
| 20260508180038 | 10 | 74 | 9.7 | 20.9 | 0.00 | 0.00 | 0.00 | 65 | 1019.3 |
| 20260508174543 | 11 | 74 | 11.3 | 24.1 | 0.00 | 0.00 | 0.00 | 64 | 1019.2 |
| 20260508173035 | 11 | 53 | 9.7 | 27.4 | 0.00 | 0.00 | 0.00 | 63 | 1019.0 |
| 20260508171535 | 11 | 52 | 12.9 | 27.4 | 0.00 | 0.00 | 0.00 | 62 | 1019.0 |
| 20260508170034 | 12 | 73 | 11.3 | 24.1 | 0.00 | 0.00 | 0.00 | 61 | 1019.0 |
| 20260508164535 | 12 | 57 | 14.5 | 24.1 | 0.00 | 0.00 | 0.00 | 57 | 1018.9 |
| 20260508163038 | 12 | 92 | 11.3 | 27.4 | 0.00 | 0.00 | 0.00 | 52 | 1018.9 |
| 20260508161536 | 12 | 101 | 17.7 | 27.4 | 0.00 | 0.00 | 0.00 | 48 | 1018.8 |
| 20260508160032 | 12 | 71 | 17.7 | 29.0 | 0.00 | 0.00 | 0.00 | 42 | 1018.8 |
| 20260508154530 | 12 | 67 | 16.1 | 27.4 | 0.00 | 0.00 | 0.00 | 40 | 1018.8 |
| 20260508153030 | 12 | 66 | 14.5 | 30.6 | 0.00 | 0.00 | 0.00 | 41 | 1018.8 |
| 20260508151529 | 13 | 70 | 20.9 | 29.0 | 0.00 | 0.00 | 0.00 | 38 | 1018.7 |
| 20260508150033 | 13 | 65 | 16.1 | 29.0 | 0.00 | 0.00 | 0.00 | 42 | 1018.7 |
| 20260508144527 | 13 | 115 | 17.7 | 30.6 | 0.00 | 0.00 | 0.00 | 42 | 1018.7 |
| 20260508143027 | 13 | 82 | 16.1 | 29.0 | 0.00 | 0.00 | 0.00 | 39 | 1018.8 |
| 20260508141521 | 13 | 97 | 14.5 | 30.6 | 0.00 | 0.00 | 0.00 | 42 | 1018.9 |
| 20260508140025 | 13 | 68 | 19.3 | 32.2 | 0.00 | 0.00 | 0.00 | 40 | 1019.0 |
| 20260508134520 | 13 | 86 | 19.3 | 32.2 | 0.00 | 0.00 | 0.00 | 40 | 1019.2 |
| 20260508133008 | 13 | 81 | 17.7 | 37.0 | 0.00 | 0.00 | 0.00 | 40 | 1019.2 |
| 20260508131503 | 14 | 78 | 16.1 | 29.0 | 0.00 | 0.00 | 0.00 | 40 | 1019.3 |
| 20260508130100 | 13 | 81 | 19.3 | 33.8 | 0.00 | 0.00 | 0.00 | 40 | 1019.4 |
| 20260508124558 | 13 | 64 | 20.9 | 30.6 | 0.00 | 0.00 | 0.00 | 40 | 1019.3 |
| 20260508123110 | 13 | 63 | 19.3 | 29.0 | 0.00 | 0.00 | 0.00 | 40 | 1019.4 |
| 20260508121558 | 13 | 82 | 17.7 | 33.8 | 0.00 | 0.00 | 0.00 | 44 | 1019.5 |
| 20260508120055 | 13 | 55 | 16.1 | 29.0 | 0.00 | 0.00 | 0.00 | 45 | 1019.4 |
| 20260508114554 | 15 | 39 | 14.5 | 27.4 | 0.00 | 0.00 | 0.00 | 43 | 1019.4 |
| 20260508113101 | 13 | 74 | 17.7 | 29.0 | 0.00 | 0.00 | 0.00 | 40 | 1019.5 |
| 20260508111552 | 13 | 92 | 16.1 | 32.2 | 0.00 | 0.00 | 0.00 | 41 | 1019.4 |
| 20260508110051 | 14 | 63 | 16.1 | 27.4 | 0.00 | 0.00 | 0.00 | 40 | 1019.3 |
| 20260508104549 | 14 | 77 | 14.5 | 30.6 | 0.00 | 0.00 | 0.00 | 40 | 1019.4 |
| 20260508103049 | 13 | 13 | 11.3 | 29.0 | 0.00 | 0.00 | 0.00 | 47 | 1019.3 |
| 20260508101544 | 13 | 90 | 16.1 | 30.6 | 0.00 | 0.00 | 0.00 | 43 | 1019.3 |
| 20260508100042 | 13 | 101 | 20.9 | 29.0 | 0.00 | 0.00 | 0.00 | 41 | 1019.4 |